Regional Weather Roundup
Issued by NWS

Home | Current Version | Previous Version | Graphics & Text | Print | Product List | Glossary On
Versions: 1 2 3 4 5 6 7 8 9 10 11 12 13 14 15 16 17 18 19 20 21 22 23 24 25 26 27 28 29 30 31 32 33 34 35 36 37 38 39 40 41 42 43 44 45 46 47 48 49 50
000
ASUS45 KCYS 201710
RWRWY

WYOMING REGIONAL WEATHER ROUNDUP
NATIONAL WEATHER SERVICE CHEYENNE WY
1100 AM MDT WED AUG 20 2014

NOTE:  "FAIR" INDICATES FEW OR NO CLOUDS BELOW 12,000 FEET
WITH NO SIGNIFICANT WEATHER AND/OR OBSTRUCTIONS TO VISIBILITY.

WYZ001-201800-
YELLOWSTONE NATIONAL PARK

CITY           SKY/WX    TMP DP  RH WIND       PRES   REMARKS
LK YELLOWSTONE   N/A     57  46  66 CALM      30.15S
W YELLOWSTONE  NOT AVBL

$$
WYZ002>013-054>058-071-098>099-201800-
NORTHERN WYOMING

CITY           SKY/WX    TMP DP  RH WIND       PRES   REMARKS
JACKSON          N/A     52  48  87 CALM      30.10R
CODY           PTSUNNY   70  46  43 NE13      29.94R
GREYBULL       PTSUNNY   76  45  33 VRB3      29.85R
WORLAND        PTSUNNY   75  47  36 NE6       29.87R
SHERIDAN       LGT RAIN  69  50  50 W7        29.85R
BUFFALO        CLOUDY    73  48  41 N21       29.89R
GILLETTE       SUNNY     79  46  31 NW17G23   29.83R
HULETT         FAIR      77  46  33 MISG      29.81
NEWCASTLE      FAIR      81  45  28 SW6G17    29.81

$$
WYZ014>020-022>026-101>103-201800-
CENTRAL WYOMING

CITY           SKY/WX    TMP DP  RH WIND       PRES   REMARKS
BIG PINEY      PTSUNNY   63  44  50 CALM      30.12R
PINEDALE       PTSUNNY   61  43  51 NW3       30.13S
DUBOIS         FAIR      61  41  48 NW12      30.08S
LANDER         PTSUNNY   74  44  34 SE7       29.96R
RIVERTON       PTSUNNY   73  39  29 W13       29.95S
CASPER         MOSUNNY   78  43  28 W15G25    29.92R
DOUGLAS        MOSUNNY   78  48  34 W17       29.90R

$$
WYZ021-027>030-104>119-201800-
SOUTHERN WYOMING

CITY           SKY/WX    TMP DP  RH WIND       PRES   REMARKS
EVANSTON       MOSUNNY   61  51  70 SW16      30.14R
KEMMERER       PTSUNNY   64  48  55 W13G23    30.14R
FORT BRIDGER   FAIR      67  53  61 W14G22    30.15S
ROCK SPRINGS   PTSUNNY   64  50  60 W13G20    30.11R
DIXON          HVY RAIN  60  57  88 SW6       30.13R
RAWLINS        MOSUNNY   67  49  52 W20G25    30.08S
SARATOGA       CLOUDY    63  54  72 MISG      30.12S
LARAMIE        MOSUNNY   67  49  52 W21       30.08R
CHEYENNE       MOSUNNY   78  46  32 W23G35    30.01R
TORRINGTON     SUNNY     83  52  34 W20G29    29.85S
PINE BLUFFS    FAIR      81  45  28 W12G20    29.94R

$$



USA.gov is the U.S. government's official web portal to all federal, state and local government web resources and services.